| time (UTC) | temp F | wind direction | speed knots | gust knots | rain 1hr in | rain 24hr in | rain mn in | humidity % | barometer mb |
| 20260504211510 | 53 | 311 | 6.1 | 13.0 | 0.00 | 0.24 | 0.02 | 59 | 994.5 |
| 20260504210009 | 53 | 321 | 6.1 | 14.8 | 0.00 | 0.24 | 0.02 | 58 | 994.4 |
| 20260504204515 | 53 | 34 | 6.1 | 13.0 | 0.00 | 0.24 | 0.02 | 59 | 994.3 |
| 20260504203008 | 52 | 334 | 7.8 | 24.3 | 0.00 | 0.24 | 0.02 | 59 | 994.2 |
| 20260504201507 | 52 | 315 | 10.4 | 15.6 | 0.00 | 0.24 | 0.02 | 59 | 994.1 |
| 20260504200007 | 52 | 247 | 8.7 | 16.5 | 0.00 | 0.24 | 0.02 | 60 | 993.9 |
| 20260504194507 | 53 | 302 | 4.3 | 11.3 | 0.00 | 0.25 | 0.02 | 59 | 993.9 |
| 20260504193005 | 53 | 319 | 4.3 | 11.3 | 0.00 | 0.25 | 0.02 | 59 | 993.8 |
| 20260504191504 | 53 | 348 | 7.0 | 18.2 | 0.00 | 0.25 | 0.02 | 60 | 993.8 |
| 20260504190006 | 52 | 360 | 4.3 | 17.4 | 0.00 | 0.25 | 0.02 | 61 | 993.7 |
| 20260504184503 | 53 | 268 | 6.1 | 19.1 | 0.00 | 0.27 | 0.02 | 60 | 993.8 |
| 20260504183003 | 53 | 340 | 9.6 | 26.1 | 0.00 | 0.27 | 0.02 | 61 | 993.7 |
| 20260504181501 | 53 | 329 | 9.6 | 20.9 | 0.00 | 0.27 | 0.02 | 61 | 993.6 |
| 20260504180100 | 53 | 360 | 7.8 | 15.6 | 0.00 | 0.27 | 0.02 | 62 | 993.7 |
| 20260504174559 | 53 | 229 | 7.0 | 13.9 | 0.00 | 0.27 | 0.02 | 62 | 993.6 |
| 20260504173101 | 53 | 5 | 7.0 | 14.8 | 0.00 | 0.27 | 0.02 | 62 | 993.5 |
| 20260504171557 | 53 | 349 | 5.2 | 13.9 | 0.00 | 0.27 | 0.02 | 63 | 993.5 |
| 20260504081547 | 39 | 319 | 1.7 | 6.1 | 0.00 | 0.28 | 0.02 | 94 | 996.8 |
| 20260504050014 | 37 | 306 | 3.5 | 6.1 | 0.02 | 0.28 | 0.02 | 95 | 1000.1 |
| 20260504044504 | 37 | 330 | 2.6 | 4.3 | 0.01 | 0.27 | 0.01 | 95 | 1000.4 |
| 20260504043101 | 37 | 321 | 2.6 | 6.1 | 0.02 | 0.27 | 0.01 | 95 | 1000.6 |
| 20260504041557 | 37 | 317 | 2.6 | 6.1 | 0.02 | 0.27 | 0.01 | 95 | 1000.9 |
| 20260504040053 | 37 | 335 | 0.9 | 3.5 | 0.02 | 0.26 | 0.00 | 95 | 1001.4 |
| 20260504034551 | 37 | 59 | 0.9 | 3.5 | 0.03 | 0.26 | 0.26 | 95 | 1001.6 |
| 20260504033048 | 37 | 59 | 0.9 | 2.6 | 0.03 | 0.25 | 0.25 | 95 | 1001.9 |
| 20260504031548 | 37 | 59 | 0.0 | 2.6 | 0.03 | 0.24 | 0.24 | 95 | 1002.2 |
| 20260504030044 | 37 | 59 | 1.7 | 3.5 | 0.03 | 0.24 | 0.24 | 95 | 1002.4 |
| 20260504024545 | 37 | 59 | 1.7 | 3.5 | 0.03 | 0.23 | 0.23 | 95 | 1002.7 |
| 20260504023041 | 37 | 95 | 0.9 | 4.3 | 0.02 | 0.22 | 0.22 | 95 | 1002.8 |
| 20260504021538 | 37 | 111 | 2.6 | 3.5 | 0.02 | 0.21 | 0.21 | 95 | 1003.2 |
| 20260504020048 | 37 | 111 | 2.6 | 4.3 | 0.02 | 0.20 | 0.20 | 95 | 1003.5 |
| 20260504014548 | 37 | 119 | 2.6 | 6.1 | 0.02 | 0.20 | 0.20 | 95 | 1003.6 |
| 20260504013037 | 37 | 105 | 4.3 | 7.0 | 0.02 | 0.20 | 0.20 | 95 | 1003.8 |
| 20260504011531 | 37 | 97 | 4.3 | 8.7 | 0.02 | 0.19 | 0.19 | 95 | 1004.0 |
| 20260504010029 | 37 | 101 | 4.3 | 12.2 | 0.02 | 0.19 | 0.19 | 95 | 1004.1 |
| 20260504004533 | 37 | 111 | 6.1 | 10.4 | 0.02 | 0.18 | 0.18 | 95 | 1004.1 |
| 20260504003027 | 37 | 108 | 6.1 | 13.0 | 0.02 | 0.17 | 0.17 | 95 | 1004.1 |
| 20260504001527 | 37 | 117 | 7.0 | 12.2 | 0.02 | 0.17 | 0.17 | 95 | 1004.3 |
| 20260504000126 | 37 | 120 | 6.1 | 13.9 | 0.02 | 0.17 | 0.17 | 95 | 1004.4 |
| 20260503234526 | 37 | 107 | 4.3 | 10.4 | 0.03 | 0.16 | 0.16 | 95 | 1004.4 |
| 20260503233023 | 37 | 84 | 4.3 | 8.7 | 0.03 | 0.15 | 0.15 | 95 | 1004.5 |
| 20260503231522 | 37 | 90 | 5.2 | 11.3 | 0.04 | 0.15 | 0.15 | 95 | 1004.5 |
| 20260503230021 | 37 | 116 | 5.2 | 10.4 | 0.04 | 0.13 | 0.13 | 95 | 1004.6 |
| 20260503224520 | 38 | 111 | 6.1 | 11.3 | 0.04 | 0.13 | 0.13 | 95 | 1004.7 |
| 20260503223019 | 38 | 114 | 4.3 | 8.7 | 0.05 | 0.12 | 0.12 | 95 | 1004.8 |
| 20260503221518 | 38 | 95 | 5.2 | 11.3 | 0.06 | 0.11 | 0.11 | 95 | 1004.8 |
| 20260503220017 | 37 | 115 | 5.2 | 12.2 | 0.06 | 0.09 | 0.09 | 95 | 1005.0 |
| 20260503214518 | 37 | 108 | 5.2 | 8.7 | 0.06 | 0.09 | 0.09 | 94 | 1005.2 |
| 20260503213014 | 37 | 129 | 5.2 | 10.4 | 0.04 | 0.07 | 0.07 | 94 | 1005.3 |